Terug naar catalogus

NIMBUS 2 DEB

ActiefLEO
NORAD 28206·DEBRIS·🇺🇸 United States

Gelanceerd May 15, 1966 vanaf Vandenberg Space Force Base

Loading…

Volgende Passages (komende 24 uur)

TLE

VersSource: Space-Track

Epoch: Sep 13, 2026, 16:29 UTC

1 28206U 66040U   26256.68746387  .00001108  00000-0  18318-2 0  9997
2 28206 100.3707 152.1910 0041813 164.3910 254.7936 13.49166930103932

Volg NIMBUS 2 DEB in realtime met AllMySat

Download on the App Store